RH
40 40 43 43 43 43 43 41 40 42 42 42 42 42 44 45 44 45 44 43 42 41 41 40 39 39 38 37 36 37 36 36 35 33 33 35 37 38 38 38 38 38 38 38 38 39 39 41 43 44 44 44 44 45 45 46 46 46 44 43 43 43 44 44 43 41 39 39 39 38 37 37 36 36 36 35 33 29 29 30 28 26 29 35 40
39 40 40 39 41 42 39 38 37 38 39 39 40 40 42 42 41 41 40 40 40 39 39 38 38 38 37 37 36 35 35 33 32 31 31 32 34 35 36 37 38 38 39 39 39 40 41 43 45 46 46 46 46 46 46 47 47 46 44 44 44 44 45 44 40 38 38 38 37 37 39 37 37 36 37 38 36 32 29 29 29 27 32 39 44
40 39 39 37 37 39 37 36 35 35 36 36 39 39 40 41 39 38 38 39 39 38 37 36 36 36 35 34 33 33 33 32 31 31 31 32 32 33 34 36 38 39 39 40 41 42 44 46 47 48 48 48 47 47 47 48 47 47 45 45 45 45 46 43 40 38 38 38 37 43 46 43 47 43 34 35 36 34 31 31 32 31 37 42 43
39 38 38 36 35 36 36 35 34 34 35 34 36 38 38 39 38 37 36 37 39 38 37 36 35 35 34 33 33 34 35 34 33 32 32 33 34 34 36 37 38 39 40 41 42 44 46 47 48 49 49 49 49 48 48 48 48 47 46 45 45 46 46 43 41 39 38 38 41 49 50 51 60 49 33 35 37 35 32 30 32 35 41 43 41
36 36 36 37 35 36 35 34 34 34 35 34 34 35 36 36 36 35 35 35 37 38 38 37 36 35 35 36 38 38 37 36 35 34 34 35 36 37 38 39 39 40 40 42 43 45 46 47 47 48 49 50 50 49 48 48 47 47 46 46 45 46 46 44 41 38 36 33 36 44 55 66 65 44 36 42 38 34 34 32 31 32 36 37 35
34 34 34 36 35 36 35 34 34 35 35 34 33 34 34 35 34 33 33 34 34 35 36 37 37 35 36 40 41 39 37 36 35 35 35 35 36 37 37 38 38 39 40 42 43 44 45 45 47 48 50 51 52 51 50 48 48 47 46 45 45 45 45 43 40 39 37 34 32 35 44 56 51 37 42 49 40 35 37 37 35 31 32 32 28
35 33 32 34 35 36 37 35 35 35 34 34 34 34 34 34 34 32 32 32 32 33 34 36 36 36 37 39 39 38 37 35 34 34 34 35 35 35 37 37 38 39 40 42 43 44 45 46 48 50 51 52 53 54 53 52 51 48 46 44 43 44 43 41 42 41 40 39 37 34 33 35 35 35 41 47 49 45 36 35 37 35 35 33 25
35 35 32 32 34 36 37 36 35 34 33 35 35 35 34 33 34 34 33 32 31 32 33 34 35 36 37 38 37 36 35 34 34 35 36 38 37 37 38 38 39 40 40 42 43 44 46 47 48 50 52 53 54 55 56 56 54 50 47 44 42 42 41 41 42 41 40 41 40 35 32 31 30 31 32 37 46 48 37 31 33 35 34 31 27
34 34 32 32 33 34 35 36 35 34 33 34 35 35 34 34 34 34 34 33 32 32 32 33 33 34 36 36 37 37 36 37 38 40 41 41 41 41 42 42 43 43 44 45 46 47 47 47 48 49 51 52 54 56 57 58 57 52 47 44 41 40 40 40 40 40 40 42 39 34 32 30 27 27 29 29 32 40 42 35 31 30 29 28 27
35 34 33 32 32 32 34 35 36 36 35 34 35 35 35 35 34 34 34 33 33 33 33 34 34 34 35 36 38 40 42 43 44 44 44 43 44 44 44 45 46 46 47 48 48 49 48 47 47 48 50 52 52 54 57 58 57 52 45 43 40 39 40 40 40 42 42 39 36 35 33 30 28 28 29 29 28 33 39 37 30 29 29 27 25
38 36 34 33 31 31 33 36 37 37 37 36 35 35 34 34 34 34 34 34 35 35 34 35 37 37 38 39 40 42 44 45 45 46 46 46 46 46 45 45 46 47 48 49 49 49 49 48 47 48 50 51 49 51 53 52 51 47 42 39 37 36 38 38 39 40 39 36 34 35 33 30 31 33 32 30 29 29 33 35 30 28 29 29 27
43 43 41 40 38 36 37 38 38 39 39 38 36 35 34 34 35 36 37 38 37 38 38 38 40 41 42 42 42 43 44 45 46 47 48 49 48 48 48 48 48 48 49 49 49 48 48 48 48 49 51 49 47 49 50 46 44 42 39 37 35 34 35 35 38 38 35 34 34 35 35 34 35 36 34 30 29 27 29 34 31 29 32 31 29
47 49 50 51 50 46 44 44 43 43 41 39 38 37 36 35 37 39 40 41 40 41 42 42 43 44 45 45 45 46 48 48 49 50 50 50 49 49 48 49 49 49 49 49 48 48 47 48 48 49 50 49 47 47 47 46 44 43 42 40 37 35 35 35 36 36 34 33 35 35 37 39 39 37 34 31 30 28 28 31 32 31 34 35 32
51 54 55 58 60 54 50 49 49 48 44 42 41 39 39 40 40 42 43 44 44 44 45 46 47 48 48 49 49 50 52 52 52 52 50 49 48 48 48 48 48 47 48 47 46 46 46 46 47 49 49 47 46 45 45 46 46 45 44 42 40 38 37 36 35 34 34 33 34 36 38 39 38 36 33 32 31 30 29 31 33 34 36 36 34
57 58 59 60 63 58 54 54 52 50 47 46 46 44 44 45 45 46 47 49 48 48 50 50 51 52 52 53 54 55 54 54 53 50 48 47 46 46 46 46 46 47 47 46 45 46 46 46 46 47 47 45 44 43 44 45 45 45 44 42 41 39 37 36 34 34 34 35 36 37 39 38 38 38 37 35 34 33 31 31 33 40 48 46 39
66 66 64 64 65 61 59 58 55 53 51 49 49 48 49 50 50 50 52 54 54 54 55 55 56 57 57 57 57 56 53 51 49 46 44 43 42 42 42 44 45 46 47 46 47 47 48 48 45 43 44 44 44 43 43 44 44 44 43 42 41 38 36 35 34 34 35 36 37 38 39 40 42 43 42 40 38 36 34 33 33 37 49 57 54
74 74 70 71 71 66 63 62 59 57 55 53 52 51 51 52 54 57 58 60 61 59 60 60 60 59 58 56 53 50 46 42 39 37 36 35 34 34 36 38 41 44 45 46 47 48 49 50 47 44 45 45 45 45 45 46 46 45 44 44 43 40 37 36 36 36 37 37 38 39 41 43 45 46 45 45 43 40 36 36 37 35 41 56 68
75 77 76 76 75 70 68 65 62 61 58 57 56 56 56 55 57 59 61 63 64 63 62 61 59 56 53 50 45 40 35 32 30 28 27 27 26 28 29 32 36 38 41 44 48 51 51 51 51 49 49 49 48 48 48 47 47 47 46 46 45 43 40 38 37 37 37 38 39 41 43 45 45 46 46 46 45 43 41 39 40 40 40 50 62
75 78 79 81 76 72 71 68 66 64 61 61 61 61 61 60 60 59 60 61 61 59 57 54 52 48 44 39 35 31 28 26 26 24 24 24 24 26 27 31 36 39 42 47 51 54 53 53 53 52 52 52 51 51 50 49 48 48 47 46 45 44 43 42 40 40 40 41 43 44 44 44 44 44 46 46 45 45 45 44 44 44 45 48 51
73 75 78 81 78 73 70 68 68 66 64 64 64 64 64 61 61 58 56 55 53 50 46 43 41 38 35 32 29 28 27 25 24 23 23 23 24 27 32 37 43 46 51 54 56 57 57 55 55 55 55 55 55 54 52 51 50 49 47 45 45 45 45 45 44 43 44 46 46 45 45 44 44 44 45 47 47 47 48 48 49 48 48 50 50
69 72 74 78 79 75 70 68 67 66 65 65 63 63 61 59 58 54 51 48 44 42 38 34 34 32 31 30 28 28 27 26 25 25 25 25 27 33 39 44 48 51 55 57 59 60 60 59 58 57 57 56 56 55 54 53 53 51 50 48 47 47 47 47 47 47 48 49 49 48 47 46 45 45 46 47 49 50 52 52 53 54 53 55 56
62 68 72 77 79 76 73 69 67 65 64 63 60 58 56 54 53 49 46 43 39 37 34 32 31 31 30 30 29 29 29 27 28 29 29 30 33 38 40 44 47 50 54 57 59 60 60 60 59 56 55 55 56 56 56 56 55 54 53 52 51 50 49 49 49 49 51 51 50 50 50 49 47 47 48 49 51 52 53 54 54 56 58 58 59
58 66 70 75 77 74 72 68 65 63 61 58 55 52 50 48 47 45 43 40 37 34 32 32 31 31 31 31 31 31 31 30 31 34 35 36 40 42 41 43 46 47 50 53 55 57 57 58 57 57 56 57 58 59 58 58 57 56 55 54 54 53 53 52 50 51 51 51 51 50 50 50 50 50 51 51 53 53 53 54 54 54 56 56 56
61 69 71 74 75 72 71 67 63 60 57 55 51 47 46 44 42 41 40 38 36 34 33 33 33 32 33 34 33 34 34 34 35 38 41 43 45 46 45 47 49 47 48 50 52 53 55 57 58 60 61 62 62 62 61 61 60 59 59 57 57 56 55 55 54 53 52 52 51 50 50 50 50 51 53 53 53 54 54 55 56 56 56 56 55
64 69 72 74 75 72 69 65 61 58 54 52 48 44 42 41 40 39 37 37 35 35 34 34 34 35 36 36 36 36 37 38 38 41 47 49 50 50 51 52 53 51 51 53 56 57 58 61 63 64 66 67 67 66 65 64 62 62 61 60 60 59 58 58 57 56 55 54 52 51 50 50 51 51 52 53 53 54 55 57 58 58 58 58 59
62 67 70 70 70 69 66 62 59 55 52 50 46 43 41 40 39 38 37 37 36 36 37 36 36 37 38 38 39 39 38 39 41 44 49 55 56 57 58 58 56 55 57 59 63 64 63 63 67 68 68 68 69 69 67 65 63 62 61 60 59 59 59 59 58 57 56 55 53 52 52 51 51 51 52 53 54 55 57 59 59 59 59 59 60
57 63 65 64 65 66 64 60 57 53 50 48 45 42 41 40 40 39 38 38 37 37 38 38 39 40 40 41 42 41 40 41 44 45 49 57 63 64 64 63 59 58 62 67 68 68 68 68 69 69 70 71 73 72 69 66 63 62 60 60 59 59 60 60 59 58 57 56 55 54 54 54 53 54 53 54 55 57 59 60 60 60 59 59 59
52 58 61 61 61 62 62 58 56 52 48 46 44 41 40 40 41 41 40 40 40 40 39 40 42 43 43 43 43 43 42 42 45 45 48 58 65 66 67 66 60 54 56 61 65 70 75 76 76 75 75 75 73 71 68 65 64 63 62 61 60 61 61 61 61 60 59 59 58 57 58 58 58 58 58 58 59 59 60 61 61 61 62 62 61
42 50 55 57 56 58 59 56 54 52 47 44 43 40 39 40 41 42 41 41 42 42 42 43 44 45 46 45 45 45 43 43 45 45 50 57 61 64 66 61 50 45 50 58 65 71 74 73 74 75 74 71 68 66 65 64 64 64 64 64 64 63 63 63 62 63 62 61 61 61 61 61 60 60 60 60 61 61 62 62 62 63 64 65 66
33 38 44 49 52 53 55 55 52 50 47 45 42 40 39 39 40 42 43 43 44 45 46 47 47 48 48 46 46 45 45 45 45 45 49 52 55 58 56 45 39 48 59 64 66 69 67 66 68 68 67 67 65 64 64 64 64 65 64 64 65 64 64 64 63 63 64 63 63 63 63 63 64 63 62 63 63 63 63 64 65 65 66 67 69
32 33 35 41 48 51 52 53 51 48 46 44 42 41 40 39 39 41 44 45 46 47 49 49 50 50 49 48 46 45 46 47 46 47 49 50 53 53 43 35 43 56 61 60 61 63 63 63 64 64 65 65 64 65 64 63 67 72 71 68 68 67 66 66 66 65 65 64 64 65 65 65 66 65 64 64 63 63 65 65 65 66 66 66 69
38 37 36 37 43 50 52 52 49 47 46 44 42 41 40 40 40 40 43 47 48 50 51 51 51 51 50 50 48 47 48 49 49 50 51 52 53 46 37 40 53 58 56 55 56 57 56 57 58 57 56 53 52 52 51 55 67 76 77 75 75 74 73 72 73 72 71 71 71 71 70 69 68 68 68 68 68 68 68 68 71 75 79 82 83
49 45 41 37 37 42 47 47 45 44 44 43 42 41 41 41 41 40 43 48 51 52 53 53 52 52 52 52 51 50 51 51 52 53 53 54 51 41 39 49 57 56 54 54 53 51 51 51 49 46 43 39 38 38 40 56 75 82 82 84 85 85 85 85 84 82 80 80 81 81 81 80 79 78 77 77 77 77 77 77 82 89 93 96 98
58 52 46 41 37 36 37 38 38 39 40 42 42 41 41 41 42 41 42 48 53 55 56 57 56 56 55 55 55 55 54 55 55 55 55 54 48 42 46 55 57 55 55 55 53 51 49 47 45 44 42 39 39 37 38 56 81 91 92 94 95 94 95 96 95 93 92 92 92 92 93 92 92 90 88 86 86 87 88 87 87 91 92 92 95
62 56 52 50 46 41 37 35 35 37 40 43 43 41 42 42 43 43 43 47 54 58 61 63 62 61 60 59 60 60 60 60 58 57 57 53 48 49 55 58 57 57 57 56 54 52 50 50 51 51 48 45 41 38 42 60 84 97 99 99 98 98 98 98 98 98 98 99 99 99 100 99 99 98 96 96 97 96 96 97 97 96 94 91 91
61 58 57 57 53 47 43 39 37 38 41 44 43 42 43 44 44 45 46 50 55 62 68 69 68 67 65 63 64 64 63 63 62 60 59 55 54 57 60 60 59 59 59 58 57 55 54 54 54 54 54 48 40 41 57 80 97 101 100 100 100 100 99 98 98 98 98 99 98 99 99 98 98 98 96 97 100 100 99 100 101 99 98 97 94
58 58 58 58 56 51 45 41 40 41 43 44 44 44 45 47 48 49 51 55 61 67 71 73 73 73 71 68 67 67 67 67 66 64 62 60 60 62 62 62 62 63 64 63 62 61 58 56 57 59 60 54 43 41 60 86 100 100 100 100 100 100 100 99 99 100 99 99 100 99 99 100 99 98 97 98 100 101 101 101 101 100 100 100 98
58 60 59 58 59 55 48 44 43 44 45 46 46 46 47 52 56 57 59 64 68 71 73 76 77 76 74 72 72 71 70 70 70 68 65 63 64 65 65 65 64 65 66 66 65 63 61 61 63 63 64 59 47 38 51 79 96 100 100 100 99 100 101 99 99 99 98 98 98 97 97 99 99 98 99 101 101 100 100 101 101 100 100 100 100
59 61 60 59 61 59 53 48 47 48 49 49 49 49 53 60 64 65 67 71 73 73 74 77 77 75 75 76 76 75 73 72 72 69 66 65 67 68 67 67 67 67 67 66 66 66 66 65 66 65 65 62 52 41 46 72 94 101 100 100 100 99 100 100 99 99 99 98 98 97 97 98 99 99 100 101 102 101 101 101 100 100 101 100 97
62 63 62 62 64 63 60 55 52 52 53 53 53 56 61 67 70 73 74 74 74 74 75 76 76 76 78 79 77 76 75 73 70 67 65 67 68 69 70 70 71 71 69 68 68 70 70 67 65 66 64 62 59 50 44 59 87 102 101 99 101 100 99 100 100 98 99 99 97 97 97 97 99 101 100 100 101 99 98 99 100 100 101 98 92
65 65 64 65 67 68 66 61 57 58 59 58 59 63 68 73 76 79 78 76 75 76 77 76 77 79 80 79 76 75 73 69 66 65 67 69 70 70 71 71 71 72 72 73 75 77 75 68 64 66 66 62 62 58 47 49 73 96 103 99 99 101 100 99 100 100 100 100 99 98 97 96 97 101 101 101 102 100 97 98 100 101 101 97 95
68 67 67 69 72 73 72 68 64 64 65 64 64 69 74 78 81 82 80 79 79 78 77 78 80 80 78 75 72 70 68 66 66 68 70 72 73 73 72 71 72 74 76 79 80 80 78 72 65 65 66 61 57 57 51 43 49 73 96 103 99 99 101 99 99 100 99 99 99 98 97 95 96 99 101 101 102 101 99 99 100 99 98 96 97
71 72 73 75 77 79 77 74 71 70 70 69 70 75 79 83 85 85 83 84 83 81 81 82 81 79 75 72 68 67 67 68 70 72 73 74 75 76 76 74 74 78 82 82 80 78 78 75 67 62 59 56 52 50 49 43 37 45 72 97 102 99 100 101 100 100 101 100 100 100 99 98 98 100 102 102 101 101 101 101 100 98 94 92 95
76 78 79 79 82 83 81 78 76 76 76 74 75 80 84 87 89 87 86 86 85 84 84 83 80 77 74 72 70 69 71 73 73 74 75 76 76 76 77 77 78 82 85 83 77 76 79 81 75 66 57 51 49 47 43 42 41 37 51 83 103 101 98 100 100 99 99 99 99 99 99 99 99 100 100 97 96 98 100 100 98 96 94 94 96
81 82 82 84 86 87 84 82 81 81 82 82 82 85 88 90 91 88 87 86 86 86 84 81 80 78 75 75 75 74 75 76 74 74 75 75 77 78 80 82 83 84 86 84 80 80 83 84 82 76 64 51 49 51 46 42 46 46 49 72 98 104 101 101 101 101 102 102 101 102 101 101 101 100 98 97 97 100 102 101 99 99 100 101 101
85 85 86 88 89 89 87 86 86 87 89 89 89 91 91 91 91 89 88 87 86 86 84 82 82 81 78 78 79 79 80 79 77 77 76 74 76 78 80 83 85 86 87 86 83 84 87 88 87 84 74 61 55 56 53 48 53 57 54 60 76 84 82 79 79 82 84 84 86 86 86 86 85 81 78 77 77 78 79 81 82 84 87 91 94
88 89 90 91 93 92 90 90 91 92 93 93 94 94 94 93 92 90 90 89 87 86 85 84 83 83 82 82 82 83 84 84 82 83 82 81 82 82 82 83 83 84 88 89 87 87 88 90 90 85 79 73 68 64 60 57 58 61 58 57 59 61 60 59 61 63 65 66 69 71 71 72 74 74 73 72 70 70 70 73 74 73 75 79 78
90 90 93 96 97 96 94 94 93 93 93 94 95 96 96 95 94 92 90 90 89 87 87 86 85 84 85 85 85 86 86 86 87 87 87 87 88 87 85 79 72 73 79 82 83 84 81 80 83 81 80 82 79 71 64 60 58 59 60 62 63 64 66 68 69 71 71 72 74 77 79 81 83 86 87 86 85 84 83 83 83 83 85 87 83
91 94 97 99 99 99 98 97 96 94 94 94 95 96 97 96 95 94 92 91 90 89 88 88 87 87 88 88 88 88 88 88 90 90 87 83 79 78 77 70 62 64 69 69 69 71 67 66 70 73 75 80 79 71 65 66 72 76 78 80 81 82 83 83 81 80 82 84 88 91 93 95 96 97 97 96 95 94 92 90 89 90 92 93 92
95 97 98 98 99 100 99 99 99 97 96 95 95 96 97 97 96 95 94 92 91 91 91 91 90 90 90 91 91 91 91 90 90 91 89 84 77 74 77 75 69 66 67 71 77 78 74 73 78 79 79 82 84 81 79 84 92 97 96 97 98 97 96 95 93 92 95 98 100 101 101 102 102 102 103 102 101 101 100 97 95 94 94 94 94
98 98 99 99 98 98 99 99 99 98 96 96 96 96 97 98 97 96 95 94 92 93 94 93 93 92 93 92 92 92 93 93 92 91 91 90 85 81 85 91 91 87 85 88 95 98 95 95 97 96 95 97 97 95 94 96 99 100 99 99 100 100 99 99 99 100 101 102 101 101 101 101 101 101 101 99 98 99 100 100 98 96 95 96 96
Wind_Speed
18 25 28 31 33 34 34 33 33 32 31 30 31 31 32 31 31 31 30 29 29 30 30 30 29 28 26 25 25 24 22 21 20 20 19 19 20 20 20 20 19 18 18 17 15 13 12 12 13 13 14 15 15 15 14 13 12 11 12 14 14 13 13 15 12 10 10 10 11 12 14 14 13 13 13 13 12 11 10 12 11 10 10 8 8
13 18 25 30 32 33 34 34 34 33 34 34 34 34 33 33 33 32 31 31 31 31 31 31 31 30 28 28 27 25 23 22 20 19 17 17 18 19 20 20 20 19 19 18 16 14 14 14 14 14 14 15 15 15 14 14 12 12 13 14 14 14 14 13 7 7 8 8 7 9 11 10 8 9 10 10 11 8 5 7 9 9 9 8 8
11 14 21 28 31 33 34 35 36 36 36 36 36 35 34 34 34 33 33 33 33 32 32 31 30 28 27 25 24 23 21 20 18 16 16 16 16 17 18 19 20 19 19 18 16 16 15 15 15 14 14 14 15 15 15 15 13 13 14 15 15 14 13 10 7 8 10 8 6 5 4 4 5 7 7 4 3 1 1 1 3 6 8 9 9
12 13 16 24 29 31 33 34 36 36 36 37 37 36 36 36 35 34 34 34 34 34 33 31 28 26 23 20 19 19 19 19 18 18 18 18 18 18 19 19 19 19 19 18 17 17 17 16 15 14 14 14 15 16 16 16 15 15 15 16 16 14 12 10 8 8 7 5 3 2 2 2 2 4 8 7 3 1 1 1 3 3 4 6 9
14 14 14 19 25 30 33 34 35 36 36 38 39 40 39 38 37 36 35 34 33 33 33 31 28 24 21 19 18 19 19 19 20 20 20 19 19 19 19 20 19 19 19 19 18 18 17 16 15 14 14 15 16 17 16 16 16 16 16 16 16 15 13 11 7 6 6 5 3 2 1 1 2 3 8 9 7 5 5 4 4 3 2 4 6
13 14 15 18 24 28 31 33 35 36 38 40 41 41 40 40 39 37 35 34 33 32 32 31 28 27 27 27 25 25 24 24 25 24 23 22 21 20 20 20 20 19 19 20 19 19 18 17 16 15 15 15 16 17 17 16 15 16 16 15 15 15 14 12 10 8 7 6 6 5 5 5 4 3 3 3 6 8 9 9 7 5 5 8 8
11 13 14 17 22 25 27 33 36 37 39 40 40 40 40 40 40 39 37 35 33 32 31 31 30 30 31 33 32 30 29 29 28 26 23 22 22 21 21 20 19 19 19 20 19 19 18 17 17 16 16 15 15 17 18 17 16 15 16 15 14 15 15 14 13 12 9 8 8 8 9 10 8 5 2 2 4 6 8 11 12 12 14 13 10
11 12 13 15 21 25 28 33 37 38 38 38 39 40 40 40 41 41 39 37 35 33 33 34 34 33 33 32 31 31 30 28 25 23 20 19 19 19 19 19 18 18 18 18 18 18 17 17 17 17 17 16 16 16 17 17 16 15 16 15 14 16 17 15 14 12 11 10 9 9 9 10 10 9 7 5 2 2 5 9 13 15 15 13 10
12 13 14 16 22 28 32 35 37 37 37 38 40 41 41 40 40 40 40 39 36 35 35 36 36 35 34 32 30 28 26 23 20 20 19 18 18 17 17 16 17 17 17 17 17 17 17 17 18 18 18 17 16 16 16 16 16 15 15 16 15 16 17 16 14 12 11 12 11 10 8 7 8 9 9 8 6 4 3 3 7 10 11 11 10
11 13 14 19 26 31 33 34 35 36 36 37 38 39 40 40 39 40 40 39 38 36 36 36 36 36 35 33 31 27 24 22 21 20 19 19 19 18 17 16 15 15 16 17 17 17 18 18 19 19 18 16 15 15 15 15 16 15 15 16 16 16 16 15 14 12 11 12 12 11 10 8 6 6 6 7 6 6 4 2 5 6 6 9 11
10 11 13 19 26 30 31 32 34 35 35 35 36 37 40 40 40 40 40 39 39 38 37 37 35 35 34 33 31 29 27 26 24 23 21 20 20 19 17 16 15 15 16 17 18 18 19 20 20 20 18 16 14 14 14 15 16 16 15 15 15 16 16 15 14 12 12 13 13 11 11 9 7 5 6 5 4 5 4 3 6 8 8 10 13
9 9 10 12 16 21 26 30 32 33 34 36 37 37 39 40 40 40 39 40 40 39 38 37 35 34 33 31 30 30 29 28 27 25 23 21 20 18 16 16 15 15 16 17 17 18 19 21 21 21 20 17 15 15 15 15 16 15 14 14 14 15 15 14 14 13 14 15 15 13 11 10 9 8 8 7 6 6 5 4 6 9 9 10 14
9 8 9 9 10 15 22 27 29 32 35 37 38 38 39 40 41 41 40 40 40 39 38 37 35 34 32 31 30 29 28 28 27 25 23 21 20 18 18 17 17 17 16 16 16 16 18 20 22 22 20 18 17 18 18 17 16 16 15 14 14 14 14 14 15 15 15 16 16 14 13 12 12 11 9 9 9 8 7 6 7 7 7 9 14
9 9 9 9 10 14 21 26 29 31 34 36 37 38 39 39 40 40 39 39 39 38 37 36 35 33 32 31 30 29 29 27 26 24 23 22 20 19 19 18 18 17 17 16 16 15 15 18 21 21 21 20 19 19 18 17 17 17 17 16 16 15 15 15 16 16 16 15 15 15 14 13 13 12 11 10 10 9 8 7 6 7 8 10 11
8 8 10 10 11 15 21 25 28 31 33 35 36 37 37 37 39 39 38 38 38 38 36 35 34 33 32 31 30 29 28 26 25 24 23 21 20 20 19 19 18 18 17 16 15 15 14 16 19 21 21 21 20 19 19 18 18 17 16 16 16 16 16 16 17 17 17 16 15 15 14 14 13 13 13 12 11 10 9 8 5 3 5 6 7
7 8 9 9 11 16 20 23 26 29 31 33 35 37 37 37 37 36 37 37 37 37 36 35 34 32 32 31 30 29 27 26 24 23 22 21 20 19 19 19 18 18 18 17 16 15 14 16 19 21 21 20 20 19 19 19 18 18 17 16 15 15 16 17 17 17 17 17 16 15 15 15 15 15 14 14 13 12 10 9 7 4 3 3 3
6 6 7 7 8 13 18 22 25 28 31 33 35 37 37 37 36 35 34 34 35 35 35 34 34 33 32 31 30 28 27 26 24 23 22 21 20 19 19 18 18 19 18 18 17 16 15 16 19 21 20 20 20 19 18 18 17 18 18 17 17 16 16 16 17 17 17 17 17 16 16 16 15 15 15 15 15 14 13 12 10 9 7 4 2
4 5 5 5 7 12 17 20 24 27 30 31 32 33 34 35 36 36 35 35 35 35 35 35 35 34 33 31 29 28 26 24 23 22 21 20 19 19 19 19 19 19 19 18 17 17 17 18 19 20 19 19 19 18 18 17 17 17 17 18 18 17 16 16 16 16 16 16 16 15 15 16 15 14 14 15 15 15 15 14 13 12 10 8 6
5 5 5 6 8 12 16 19 21 24 26 27 29 30 31 32 34 35 35 36 35 35 35 34 34 33 32 30 28 26 24 23 22 21 20 19 18 18 18 19 19 19 19 19 18 18 18 19 19 19 18 18 17 17 17 17 17 17 17 18 18 18 17 17 16 16 16 15 15 15 16 16 15 14 14 15 15 15 15 15 15 15 14 14 12
7 6 7 7 8 13 17 18 21 22 24 26 27 29 30 32 33 34 34 34 34 34 34 33 33 32 30 28 26 24 23 22 21 20 19 18 18 18 19 20 20 19 19 19 19 19 19 19 19 19 18 17 17 17 17 17 17 18 18 18 18 18 18 18 17 17 16 16 17 17 17 17 16 15 16 15 15 16 16 16 16 16 17 17 17
7 7 8 7 8 13 17 18 20 21 23 25 27 29 30 32 33 34 34 34 34 34 34 33 32 31 29 27 25 24 22 21 19 18 18 18 18 20 20 21 21 20 19 19 18 19 19 19 19 19 18 17 18 18 18 18 18 18 18 18 18 18 18 18 18 18 17 18 18 19 18 18 17 17 17 17 16 16 16 15 15 15 17 17 18
8 8 8 7 8 12 16 18 19 21 23 26 28 29 30 32 33 34 34 35 35 35 34 33 32 30 28 27 25 24 22 20 19 18 18 19 20 21 21 22 21 20 20 19 19 18 18 18 18 18 18 17 17 18 18 18 18 19 19 18 18 17 17 18 19 19 19 19 19 20 20 20 19 19 18 18 18 17 16 16 16 16 17 17 17
8 7 7 7 9 13 16 18 20 23 25 26 28 29 30 31 32 33 34 35 34 34 34 32 31 29 28 26 25 24 22 21 20 20 20 20 21 21 21 21 21 20 20 19 19 18 18 18 18 17 17 17 17 18 18 18 18 19 18 18 18 18 17 17 19 20 20 20 19 20 20 21 20 20 20 20 19 19 19 19 20 19 19 19 18
6 6 6 5 8 12 14 17 20 22 24 26 27 28 29 30 31 33 33 34 33 33 32 32 31 29 28 27 26 24 23 22 22 22 22 22 22 21 21 21 20 19 18 18 18 18 17 17 17 18 18 18 18 18 17 18 18 18 19 19 18 18 18 18 19 19 19 20 20 21 21 21 21 22 22 21 21 21 21 21 21 21 21 22 21
5 5 5 6 8 10 12 17 20 21 24 25 26 27 28 29 30 31 32 32 32 32 32 31 30 29 28 27 26 26 25 24 24 23 23 23 23 23 22 21 19 18 18 17 16 16 17 17 17 18 18 18 18 18 18 17 17 17 18 18 19 19 19 19 19 20 20 20 21 21 21 20 21 22 23 22 22 21 21 22 21 21 21 21 20
6 6 6 7 8 8 11 16 19 22 23 25 26 26 27 27 28 30 30 31 32 32 31 31 30 30 29 28 27 27 26 25 25 24 24 24 24 24 22 20 19 19 19 18 18 17 17 18 18 18 18 18 18 18 18 18 18 18 18 19 20 20 21 20 20 20 21 21 22 21 21 20 20 22 22 23 22 22 22 22 22 22 21 21 20
6 5 6 7 8 9 12 15 19 21 23 25 26 26 27 27 28 28 29 30 31 31 31 31 30 30 30 30 29 28 27 26 25 25 25 25 25 24 23 21 19 20 20 20 19 18 17 17 17 18 18 18 18 18 18 19 19 19 20 20 20 20 21 22 21 21 21 21 21 21 21 21 21 22 23 23 23 23 23 24 25 25 24 23 23
5 6 7 8 9 10 10 14 19 21 22 24 26 27 28 28 28 29 29 30 31 32 32 31 30 30 30 30 29 28 27 26 25 25 26 27 26 25 23 21 20 20 21 21 20 19 18 18 18 19 19 19 20 20 20 19 19 19 19 19 19 20 21 22 23 23 22 22 22 22 22 22 23 23 24 25 25 26 26 27 27 28 27 27 27
8 7 8 9 10 10 10 13 17 19 22 23 25 27 28 29 29 30 31 31 31 32 32 31 30 30 30 30 29 28 27 27 26 26 27 27 27 25 23 21 20 20 20 20 21 20 20 21 21 21 22 21 21 21 21 20 20 19 19 19 19 20 20 21 22 23 23 23 24 24 24 24 24 25 26 27 27 28 29 29 29 29 29 29 29
11 9 8 9 10 9 8 9 13 18 21 23 25 28 29 30 30 31 32 32 32 32 31 30 30 29 29 29 29 28 28 28 28 28 28 28 26 24 22 20 21 21 21 21 22 22 23 23 22 23 23 22 22 22 22 21 20 20 20 20 20 21 21 22 23 23 24 25 25 25 26 26 26 26 27 28 29 29 30 31 31 30 30 30 31
14 14 12 8 8 7 5 6 12 19 23 25 27 29 30 30 31 32 33 33 32 32 31 30 29 29 29 29 29 28 28 29 29 29 29 27 25 23 21 21 22 22 22 22 23 24 24 24 24 24 24 24 23 23 23 22 20 19 19 20 21 22 22 23 23 24 25 26 26 27 28 28 28 29 30 30 31 32 32 32 33 33 33 33 33
16 16 15 13 10 6 6 9 16 21 25 28 29 28 29 31 33 33 33 32 33 33 31 31 29 28 29 30 30 29 29 29 30 30 29 27 24 22 21 22 23 23 23 23 23 24 24 24 24 24 24 25 25 25 24 22 20 18 19 20 21 22 23 24 25 26 27 27 28 28 29 30 30 31 31 31 32 33 33 33 33 32 32 32 33
17 16 16 15 13 10 9 13 19 23 28 32 32 30 32 34 34 33 33 33 33 33 32 31 30 29 30 30 30 30 30 30 31 30 29 26 23 22 23 24 24 24 24 24 24 24 24 24 24 24 24 24 23 23 22 20 19 19 19 20 21 22 23 25 26 27 28 28 28 29 30 31 31 30 30 31 32 32 32 33 32 31 31 31 31
18 16 16 15 15 17 17 18 20 25 29 31 31 31 32 31 31 32 33 33 32 32 32 31 30 30 30 30 31 31 31 31 31 30 28 25 23 23 24 25 25 24 24 24 24 24 23 23 23 22 22 21 21 21 20 19 18 18 18 19 21 22 23 23 24 25 26 26 27 28 29 30 30 30 30 31 32 32 32 33 33 33 34 35 34
18 17 18 18 21 24 24 23 23 24 25 26 28 30 29 29 30 33 33 33 32 31 31 31 31 30 30 30 31 31 31 31 30 29 27 24 23 24 25 26 25 25 25 25 24 23 23 22 22 21 21 22 21 20 19 18 18 18 18 18 20 22 23 23 25 25 26 26 26 26 27 28 28 28 29 29 29 30 31 33 34 35 37 37 38
18 19 21 24 28 30 28 26 25 21 19 23 27 29 29 29 31 32 32 32 32 30 30 30 31 31 31 31 31 31 30 30 29 28 26 24 24 25 26 26 25 25 25 24 23 23 22 22 22 21 22 22 21 18 17 17 17 17 18 18 20 21 23 24 25 26 27 28 28 28 29 29 29 30 30 29 28 29 30 32 33 34 36 37 39
22 25 28 33 36 36 33 28 24 20 19 22 26 27 28 28 29 30 30 31 30 29 30 30 31 31 31 31 31 31 30 29 28 27 25 25 25 26 27 26 26 25 24 24 23 23 22 22 21 21 22 22 20 18 16 16 17 17 18 19 21 22 23 24 26 26 27 28 28 29 30 30 31 32 31 30 28 28 31 32 32 33 34 35 38
23 28 32 37 39 38 36 29 22 19 19 21 24 26 28 27 27 29 29 28 28 29 29 30 30 30 31 31 31 31 30 29 28 27 26 25 26 27 27 26 26 25 25 24 24 23 22 21 21 21 21 21 20 19 16 16 17 17 18 19 21 22 22 24 25 26 27 28 30 31 31 31 32 33 32 30 28 29 31 32 31 32 32 34 35
24 27 31 36 39 39 35 28 21 20 20 20 23 26 27 25 25 27 26 26 27 29 29 29 29 29 30 30 30 29 29 28 27 27 26 26 26 27 27 26 25 25 24 24 23 22 22 22 22 21 21 21 21 20 17 17 17 17 18 19 20 21 22 23 24 25 26 27 29 30 31 30 32 32 31 30 29 30 32 34 35 34 35 37 38
27 29 31 34 37 35 32 29 25 23 20 19 23 24 24 23 23 24 25 26 28 28 28 28 28 27 28 28 28 28 28 27 27 26 26 26 27 26 25 25 25 24 24 22 22 22 22 22 21 21 20 20 21 20 19 18 17 18 18 19 21 22 23 24 24 25 26 27 28 30 30 30 30 29 29 29 30 30 33 36 37 37 39 41 41
29 32 34 34 33 32 31 31 30 24 19 20 23 23 22 21 21 23 25 26 26 25 25 26 26 26 25 26 26 27 27 26 26 26 25 26 26 25 25 25 24 24 23 22 22 21 22 22 21 20 20 20 21 21 21 20 19 20 20 20 21 23 24 24 25 25 26 28 29 29 30 30 29 28 29 30 31 31 33 35 36 36 38 40 39
30 32 32 32 32 32 31 32 30 23 19 20 23 22 20 20 21 22 24 23 22 23 25 25 24 23 23 24 24 25 25 25 25 25 25 25 25 24 24 24 23 23 22 22 22 21 21 22 22 21 22 23 22 23 23 23 22 22 21 21 23 24 24 24 26 27 28 29 30 30 31 31 30 28 28 30 31 31 32 34 34 34 35 36 36
30 31 31 31 31 31 31 31 27 21 19 21 23 21 19 19 20 20 20 19 20 22 22 22 21 21 22 23 23 23 24 24 24 24 24 24 24 23 23 22 22 22 22 22 23 22 21 22 23 23 24 24 23 23 23 23 22 21 21 21 22 23 23 23 25 27 27 27 29 29 29 30 29 28 29 30 30 31 32 32 33 33 33 33 33
27 29 32 33 30 29 32 31 24 19 19 20 22 20 18 17 17 17 17 19 19 19 19 19 20 21 21 22 22 22 23 23 24 23 23 23 23 22 22 22 22 22 22 22 23 22 21 22 23 24 24 24 23 22 22 21 20 20 20 20 21 21 21 22 25 26 25 25 25 25 26 26 26 27 29 30 30 31 31 31 31 31 30 29 27
28 31 34 32 30 31 31 27 20 16 17 18 19 18 16 15 15 16 17 19 19 18 19 19 20 21 21 22 21 21 22 22 23 23 23 23 23 22 22 22 22 22 22 23 22 22 21 21 22 23 24 24 23 22 21 21 20 20 20 20 20 20 20 21 23 25 25 24 24 24 25 25 26 27 28 28 28 28 27 28 29 28 26 26 25
28 31 33 32 32 31 26 19 14 13 14 15 15 15 14 14 15 16 17 18 18 19 19 19 20 21 21 21 21 21 21 22 22 22 23 23 22 23 23 22 22 23 23 23 23 22 21 21 22 22 23 23 23 22 22 22 22 22 22 22 22 22 22 22 23 25 26 26 25 25 25 26 27 28 29 30 30 30 30 30 31 30 30 30 29
27 29 32 31 28 24 19 14 11 10 11 12 12 13 12 13 14 16 16 17 17 18 19 19 20 20 20 21 21 21 21 22 22 22 22 22 22 22 22 23 23 24 23 23 23 22 21 21 21 22 22 22 21 22 23 24 23 23 23 23 23 23 23 23 25 26 26 25 24 24 24 26 27 28 28 29 30 30 31 31 31 31 32 32 32
29 31 30 26 22 19 16 13 10 9 10 11 11 11 11 11 13 14 15 16 17 18 18 19 19 19 20 20 21 21 22 22 23 23 23 23 23 23 24 25 26 25 25 24 23 22 22 22 22 20 19 19 20 22 24 24 23 23 23 23 23 23 24 24 25 26 26 26 26 27 27 29 29 29 29 29 30 30 31 31 32 32 32 31 32
28 28 25 22 19 17 16 13 11 9 9 11 11 12 12 12 12 14 14 15 16 17 17 17 18 18 19 20 21 22 22 22 22 23 24 25 25 24 25 26 26 26 25 23 23 23 23 23 22 21 20 19 20 22 23 23 22 22 22 23 24 24 25 25 26 27 28 28 28 27 28 28 28 28 29 29 29 30 30 30 31 32 31 31 31
26 25 23 21 18 17 16 14 11 9 8 10 11 12 12 12 13 13 14 15 16 16 16 17 17 18 20 20 21 21 22 22 22 23 23 24 24 24 24 25 25 24 22 21 22 23 23 23 22 22 21 21 23 24 25 24 23 23 24 25 27 26 27 28 28 29 29 28 26 25 25 25 25 25 25 25 26 27 27 29 30 30 30 30 30
22 21 20 19 19 18 16 14 11 10 9 10 12 12 12 13 13 14 15 16 16 16 16 17 18 19 20 20 20 21 22 22 22 22 22 22 23 23 23 23 22 22 21 20 21 21 21 21 22 24 25 25 27 27 27 26 26 25 25 25 25 25 25 25 25 24 24 25 24 22 22 21 21 21 22 23 24 24 24 26 27 27 28 28 29
Wind_Direction
208 205 205 203 203 203 202 198 194 194 195 196 197 199 202 203 202 201 200 198 198 197 197 197 196 196 198 201 206 211 216 222 227 230 228 224 224 226 230 234 237 239 240 243 247 248 252 254 255 251 251 254 258 264 268 270 270 265 257 252 250 252 269 287 294 287 281 281 282 289 296 295 292 294 298 302 298 284 274 270 262 261 267 268 264
199 200 201 200 200 199 198 196 194 195 196 198 198 199 201 202 203 202 200 198 199 200 199 200 202 203 205 207 212 215 219 222 225 226 224 221 221 225 228 231 233 236 239 243 247 251 254 256 256 251 249 252 257 262 264 264 262 253 245 241 243 254 272 283 280 272 274 277 292 304 306 305 303 301 302 304 299 288 271 259 256 262 264 257 257
195 197 197 197 197 195 195 195 196 198 198 199 199 198 198 201 203 203 201 200 200 201 202 204 207 209 212 214 216 217 219 220 222 223 220 218 219 221 225 228 231 234 237 242 247 252 254 255 254 250 247 248 252 256 257 258 255 245 242 242 246 256 267 265 253 262 267 271 293 306 305 322 325 317 321 335 354 352 191 218 274 275 267 261 264
199 198 194 194 194 193 194 195 196 198 198 198 198 197 198 200 202 203 203 203 201 203 206 208 211 212 214 215 213 211 212 213 217 221 218 217 217 217 221 224 228 233 237 242 248 252 254 254 253 250 247 246 247 251 254 256 252 245 245 246 248 249 247 247 251 256 251 250 276 281 311 331 300 347 353 335 328 339 238 68 20 325 288 282 277
198 198 193 192 194 195 196 196 196 197 197 198 198 198 199 200 201 203 204 204 203 204 206 208 209 207 205 202 201 202 203 200 201 204 203 205 208 210 215 221 227 234 239 243 247 249 250 250 250 248 247 245 244 247 250 253 251 248 248 247 246 243 238 239 237 234 230 229 233 236 319 319 223 357 351 309 285 287 289 316 342 354 30 347 317
199 197 193 192 195 195 196 195 195 197 199 200 200 201 201 201 201 202 203 204 204 204 204 205 204 201 196 193 192 195 198 199 198 199 200 204 209 214 219 225 232 238 241 242 243 244 244 244 245 245 244 242 240 242 245 247 247 244 244 244 242 236 233 229 225 233 244 249 248 240 248 252 256 333 359 300 294 292 287 295 299 305 325 331 334
202 200 194 193 193 192 195 197 197 199 201 202 202 203 203 203 202 202 203 203 204 204 203 202 201 199 197 197 197 198 201 205 208 211 215 218 221 222 224 226 230 233 235 237 238 239 240 241 242 243 243 242 240 240 243 244 245 243 242 243 237 226 222 222 226 238 247 253 257 249 247 252 261 279 241 244 307 290 280 291 292 296 308 319 329
198 200 198 195 194 193 195 198 200 201 202 201 202 203 203 204 203 202 203 204 205 204 202 201 200 199 199 201 204 206 210 213 215 215 215 214 213 212 212 213 216 221 226 231 234 237 239 240 241 241 241 241 241 241 242 243 243 242 240 237 229 221 221 225 227 231 237 250 257 248 241 244 251 258 252 244 254 273 287 294 295 298 303 310 317
198 199 199 198 197 197 198 199 202 203 202 201 202 203 203 203 203 203 203 204 204 203 202 202 202 202 202 203 206 211 216 216 208 201 198 197 198 199 201 204 209 215 222 229 235 238 240 239 238 237 236 236 238 240 240 240 240 239 236 230 225 222 224 227 224 225 235 245 247 243 240 239 239 243 250 252 249 264 280 282 303 312 304 295 295
205 203 201 201 200 200 200 200 202 203 203 203 203 202 202 201 201 201 203 203 202 202 201 201 204 205 206 207 209 210 208 201 194 193 195 198 201 205 209 212 215 217 222 230 236 239 239 238 234 233 232 231 234 236 234 235 236 237 234 229 227 223 221 222 224 232 241 239 235 237 240 240 238 233 244 259 263 272 275 277 310 326 314 294 288
208 208 207 204 203 201 200 200 201 203 203 202 202 201 200 199 199 199 201 201 200 200 200 201 203 205 207 209 209 207 200 196 197 200 202 206 210 213 216 219 221 224 227 230 235 237 236 233 232 231 229 228 230 228 224 224 226 227 225 223 222 222 222 225 232 237 233 228 229 232 234 235 239 241 250 263 263 266 272 284 300 306 305 298 293
204 205 207 201 198 197 197 199 200 198 199 200 200 199 197 197 196 195 196 197 197 198 199 201 202 204 207 208 208 206 202 200 201 202 202 205 207 208 210 214 217 220 223 227 231 233 231 228 226 225 224 225 226 221 218 217 218 219 219 220 220 221 223 225 228 228 223 223 225 227 229 234 241 246 253 260 258 262 268 270 287 299 301 296 297
202 200 199 192 190 192 192 194 194 193 195 196 196 196 194 194 193 192 193 194 196 197 199 201 202 204 205 205 204 202 199 199 199 198 199 201 202 204 206 209 211 215 219 223 225 225 225 224 222 221 221 222 218 214 215 217 221 223 223 224 223 221 220 221 223 223 222 222 222 225 233 240 243 244 246 250 255 265 274 278 285 293 292 293 298
205 199 196 194 191 190 190 189 189 191 193 193 192 192 191 191 191 191 191 193 195 197 199 200 201 203 202 200 199 197 196 197 198 199 199 202 204 206 208 211 214 217 218 220 221 222 222 221 221 220 217 214 211 212 216 220 223 224 225 226 227 228 226 224 223 221 220 221 223 228 234 234 231 233 239 243 249 258 266 276 288 294 290 291 295
209 204 202 202 194 188 187 187 188 189 189 188 189 189 189 190 191 191 191 191 194 195 196 197 198 198 198 197 196 196 197 198 199 200 202 204 207 208 211 214 214 214 214 214 216 218 215 210 213 213 209 208 209 212 214 216 218 219 221 223 224 226 225 223 221 219 219 221 222 225 225 225 228 234 240 244 247 252 256 262 270 289 293 289 288
206 208 211 207 193 187 186 185 187 186 185 186 187 188 190 190 191 192 192 191 191 192 193 194 194 193 192 192 192 194 195 197 197 200 202 206 209 210 212 214 213 213 213 213 214 216 211 202 202 202 202 203 204 207 209 211 215 219 220 219 217 216 217 217 217 216 218 221 222 225 226 231 238 242 243 243 245 246 247 251 252 246 256 277 290
206 211 211 203 191 190 190 187 186 185 186 188 189 190 191 190 190 190 190 189 190 191 191 191 189 188 188 189 191 192 195 197 199 201 203 207 210 213 215 216 217 216 215 215 215 215 212 203 198 197 198 200 202 205 209 212 217 220 221 220 217 214 212 213 214 214 216 220 224 229 234 239 242 241 242 242 241 242 242 245 250 250 249 243 258
231 226 216 205 199 197 195 193 192 190 190 190 190 191 191 191 191 189 188 188 189 189 189 188 187 186 187 189 191 193 196 199 201 203 205 207 211 215 217 218 219 218 216 216 214 211 209 205 202 200 200 203 206 210 213 216 219 220 220 221 219 216 212 211 212 213 214 218 224 230 236 239 240 236 236 235 235 238 240 244 248 249 250 244 241
235 224 214 209 207 204 199 197 197 195 194 193 191 191 191 192 192 191 190 189 188 188 187 187 188 188 189 190 192 195 197 199 201 203 205 209 212 214 215 215 214 214 213 211 210 207 205 205 205 206 207 209 212 216 218 219 219 218 215 215 216 216 214 214 215 216 217 220 223 227 230 234 236 233 230 230 233 237 239 244 247 247 250 254 256
229 222 219 214 209 208 203 200 199 196 196 194 192 192 192 192 191 190 190 188 187 188 188 188 189 190 190 190 192 195 196 199 201 203 205 207 210 210 209 207 206 207 207 207 207 207 207 207 208 210 213 215 218 221 222 220 218 215 212 209 210 213 216 216 218 221 222 223 223 223 225 229 231 229 229 230 234 239 244 246 250 253 252 255 259
231 223 220 216 208 207 204 203 201 197 197 195 194 193 192 191 190 189 188 187 187 188 189 189 189 190 190 189 191 194 195 198 200 201 203 204 205 205 204 204 204 205 206 206 207 209 211 213 214 216 220 222 222 222 221 219 216 213 211 209 208 211 216 218 219 220 221 223 224 225 227 229 228 227 230 234 239 243 246 247 248 251 251 250 253
233 223 216 209 202 200 197 197 196 195 196 195 194 193 191 191 191 190 189 188 189 189 189 189 189 189 190 189 191 194 194 196 197 197 198 200 202 202 204 206 206 207 208 209 211 212 214 217 219 221 222 220 218 217 215 214 212 210 210 210 208 210 214 217 219 221 222 223 225 228 230 230 229 231 233 237 241 242 241 243 243 243 245 245 247
236 222 212 204 195 192 189 191 194 195 196 195 195 194 193 192 191 190 191 191 190 190 189 190 189 188 189 189 191 193 193 194 195 195 195 198 200 202 206 207 207 208 211 214 216 217 217 218 218 216 215 212 210 209 209 208 208 207 207 208 210 212 215 217 218 221 223 225 227 228 230 231 231 233 236 238 241 242 242 245 247 246 246 248 248
246 221 210 193 184 186 188 193 196 197 197 196 196 196 195 194 193 192 193 192 191 190 190 190 189 188 189 190 191 193 194 194 194 195 195 197 201 204 206 207 207 210 212 213 215 215 213 211 210 206 204 205 205 205 206 208 210 211 211 211 213 216 219 221 221 222 223 226 228 230 231 232 232 233 236 239 240 242 244 246 248 248 248 252 254
249 218 191 182 187 191 196 199 199 198 199 198 197 198 197 196 196 194 194 193 191 191 190 190 189 187 188 191 191 193 195 195 194 195 196 198 202 205 206 207 207 209 209 205 204 205 203 201 202 201 201 203 205 205 206 210 214 215 216 217 217 219 222 224 226 227 229 230 231 233 234 233 231 231 234 237 239 241 244 244 245 246 247 251 255
243 213 191 197 201 204 205 204 202 200 199 199 198 199 199 199 199 197 196 193 192 191 191 190 190 188 189 191 193 194 196 196 195 194 196 200 203 205 206 206 206 206 203 200 199 202 203 203 203 205 206 207 209 209 210 213 218 220 220 221 221 222 224 226 228 229 230 232 233 234 235 233 231 231 232 235 239 241 242 240 239 242 246 249 252
249 220 209 214 213 214 211 207 206 203 200 200 200 200 201 201 201 200 198 196 194 192 192 191 190 190 190 192 194 195 196 196 195 196 198 200 202 204 205 206 206 205 203 202 202 204 207 209 210 211 212 212 213 215 218 219 220 221 221 221 222 224 226 228 230 231 231 233 234 234 235 237 236 236 237 239 241 242 242 242 243 246 249 251 253
273 236 224 223 221 221 216 209 206 203 201 201 202 202 203 202 202 201 199 198 196 194 193 191 191 191 192 194 196 197 197 197 197 198 199 199 201 203 206 208 210 209 208 207 204 204 208 212 212 212 214 215 215 217 220 220 219 220 220 222 225 226 229 230 231 234 235 236 238 239 240 241 242 243 244 245 246 247 248 249 250 251 252 253 253
300 263 241 235 232 226 216 210 205 200 201 201 202 203 203 203 203 201 200 199 197 195 194 193 192 193 194 195 197 198 197 196 197 198 199 200 202 204 207 211 213 210 207 205 204 205 208 209 209 209 212 214 215 217 219 220 221 222 223 224 226 228 230 231 232 234 237 238 240 241 243 244 246 247 249 250 251 252 253 253 253 253 252 252 252
320 303 279 257 249 243 230 212 203 201 203 202 202 204 203 202 201 199 199 199 197 195 195 194 195 196 195 196 197 197 196 196 199 200 201 203 204 206 209 210 206 203 201 203 205 208 210 210 210 211 213 215 217 220 221 223 224 227 229 230 231 232 233 234 236 237 238 240 241 243 245 246 247 249 251 253 255 257 257 257 256 255 254 252 252
342 336 324 305 280 269 254 218 211 211 209 206 207 206 203 202 201 199 198 197 195 195 195 196 198 197 196 196 196 196 196 198 201 203 203 204 205 207 209 205 199 199 203 206 208 210 213 216 217 219 220 222 224 226 227 229 230 232 236 238 238 239 239 240 242 243 244 246 247 248 249 249 251 253 255 257 258 259 259 259 259 258 258 256 254
346 342 337 333 317 281 237 225 223 219 215 213 211 206 202 202 201 198 196 194 194 196 196 197 199 198 197 197 197 198 199 201 203 204 204 204 205 208 206 200 199 203 207 209 211 214 217 220 223 226 228 230 231 233 234 235 237 237 239 243 245 246 247 248 249 251 252 254 255 255 256 256 256 257 258 259 259 259 259 259 259 257 255 255 253
338 334 331 331 323 298 263 247 240 232 226 221 214 206 203 203 200 196 193 192 193 195 196 197 198 198 198 197 198 199 200 202 203 203 203 203 206 208 203 200 202 206 209 212 215 218 220 223 227 230 233 234 235 236 237 238 240 241 240 242 245 247 249 250 251 253 255 256 257 258 258 258 259 259 259 259 259 259 259 258 256 253 251 250 250
332 330 330 330 325 313 297 280 269 257 243 229 217 210 207 203 197 193 192 191 193 194 196 197 197 197 198 198 199 200 201 203 203 202 203 204 206 207 203 203 206 208 210 214 217 221 224 227 230 232 235 238 239 240 241 240 240 243 244 244 246 248 249 249 249 251 253 254 255 255 255 256 257 257 258 257 257 258 258 257 255 253 251 251 250
330 333 334 333 329 321 309 302 297 281 254 231 217 210 205 198 194 192 191 191 192 193 195 196 196 197 198 198 199 201 202 203 202 201 203 206 207 206 203 205 208 210 214 218 220 224 226 228 230 233 237 242 244 244 244 242 242 244 247 248 249 249 250 250 250 250 251 251 252 253 254 255 255 255 256 256 256 257 258 258 256 254 254 253 252
331 335 333 330 327 321 312 310 310 297 260 229 216 207 198 193 192 191 191 192 193 193 194 196 196 198 199 199 200 201 202 201 201 202 205 207 206 205 205 207 211 214 219 222 224 225 227 229 232 234 238 243 246 245 243 243 244 247 248 250 251 252 252 252 252 252 252 252 252 252 253 255 255 255 256 255 255 257 258 257 255 255 256 256 255
329 331 329 327 324 319 314 311 309 298 266 233 215 202 193 190 189 189 190 191 192 193 194 195 197 198 199 201 202 202 202 201 201 203 206 207 206 207 208 210 213 216 219 222 224 225 228 231 233 234 237 244 250 251 247 245 246 249 250 251 252 253 253 253 253 253 253 253 252 252 253 254 255 255 255 255 254 255 256 255 253 254 255 255 257
327 329 329 326 323 318 312 307 300 290 267 235 212 199 192 189 188 188 189 190 192 195 196 196 197 198 200 202 204 204 203 203 203 205 206 207 206 208 211 213 215 218 221 223 226 228 231 233 236 237 240 246 255 258 254 250 249 250 251 252 253 254 255 255 255 255 254 255 255 255 254 254 255 256 255 255 255 254 255 256 256 257 257 255 256
324 328 326 323 319 315 308 299 289 280 264 234 211 199 191 189 190 188 188 191 195 198 198 197 198 200 203 204 205 205 206 206 206 208 208 208 209 211 213 216 218 221 225 227 229 231 233 235 238 241 243 248 256 261 260 254 251 251 251 252 254 254 254 255 256 256 256 256 257 257 255 253 254 256 255 255 255 254 254 255 255 256 257 256 256
322 324 322 318 315 312 304 295 286 278 261 231 208 198 193 192 190 188 192 197 199 200 199 199 201 203 205 206 207 208 210 210 210 211 211 211 211 212 214 216 219 223 227 230 231 231 235 238 241 244 247 250 255 262 266 262 255 252 252 253 254 253 254 255 256 257 257 258 258 258 258 256 254 255 257 257 257 255 253 253 252 250 251 255 258
319 320 320 318 314 309 302 294 286 277 256 227 207 198 197 195 190 192 200 203 201 200 199 200 203 205 207 209 211 212 213 214 215 215 214 213 214 215 216 217 221 224 227 230 231 232 236 243 246 247 250 254 257 262 269 270 264 258 255 255 255 254 255 257 258 258 258 259 260 260 261 261 259 258 259 260 259 259 258 257 255 252 252 257 259
318 317 318 317 313 309 303 294 285 271 248 224 207 199 199 195 194 201 205 203 201 200 201 203 206 208 210 212 214 215 216 217 217 215 214 214 215 217 219 220 223 225 227 230 233 234 238 245 250 252 253 257 260 263 269 273 270 264 260 257 257 257 258 258 259 259 258 259 261 262 263 264 263 261 261 261 260 260 261 261 262 261 261 261 261
317 317 319 318 312 307 303 296 284 264 241 221 206 202 201 198 201 207 204 200 202 202 202 205 207 210 213 214 215 217 217 217 217 216 215 216 216 218 220 222 224 225 227 231 234 237 240 246 252 256 259 262 266 268 271 273 274 271 266 262 261 261 260 259 259 260 259 260 263 264 264 266 265 262 262 261 261 260 260 260 262 263 265 266 267
315 318 320 318 311 306 304 297 280 254 235 220 208 206 205 202 206 208 201 200 203 202 203 206 208 210 213 214 216 217 217 217 217 216 217 218 218 219 221 223 225 226 227 232 237 240 241 245 253 260 266 270 274 275 277 277 277 277 274 269 266 265 264 263 263 264 265 265 266 266 266 266 265 262 262 262 262 262 261 260 262 264 267 270 273
320 320 320 317 312 309 304 293 273 249 233 221 213 210 209 207 207 206 202 202 201 200 202 204 206 209 211 212 213 215 216 218 219 218 219 219 219 220 221 222 224 225 228 233 238 241 242 245 252 259 268 275 279 281 282 282 281 282 281 275 270 268 268 267 267 268 268 269 270 271 271 270 269 269 269 270 270 269 268 268 269 271 273 275 275
322 322 322 320 318 313 303 288 269 248 231 222 219 217 215 213 210 206 204 203 199 199 201 203 206 209 209 210 211 212 215 219 221 222 223 224 222 222 222 223 225 226 229 234 238 241 244 247 251 257 266 275 280 281 282 284 283 283 283 280 276 273 272 271 270 269 270 271 273 273 272 272 272 273 274 275 275 274 274 274 274 273 273 273 273
323 324 325 323 320 316 308 294 275 251 234 227 224 222 222 221 214 208 205 203 201 201 202 204 206 208 209 210 211 212 214 217 220 222 224 226 227 227 227 227 227 227 229 232 237 240 243 245 249 256 262 269 275 278 280 282 283 282 284 285 283 281 279 277 275 275 275 276 276 275 275 275 276 276 275 274 273 273 273 273 272 271 270 268 268
324 324 325 325 323 322 318 307 290 265 245 235 229 227 229 226 218 212 208 205 204 206 207 208 209 210 211 212 213 215 216 218 221 223 225 227 228 228 229 232 234 233 231 232 235 240 245 249 252 257 262 265 269 272 276 281 285 286 286 284 281 280 279 278 278 280 281 281 278 276 275 274 274 273 273 271 270 269 269 269 269 268 268 267 266
322 324 327 328 328 329 328 322 309 286 259 245 238 235 234 232 224 219 213 209 210 212 212 213 213 213 215 216 216 219 221 222 224 227 230 233 235 235 236 241 245 244 242 244 246 248 254 259 260 260 261 259 261 270 282 288 288 285 284 281 278 278 278 277 279 282 281 276 272 269 268 267 266 266 265 265 266 266 265 266 266 265 264 264 263
322 326 329 331 334 336 335 330 320 303 277 256 248 244 240 237 231 225 221 219 218 215 213 214 216 217 218 218 218 221 224 225 227 230 233 239 243 244 245 249 254 256 256 255 254 256 263 267 266 267 268 266 268 279 290 289 280 274 273 273 272 273 273 274 277 279 273 265 261 260 259 259 258 256 256 258 262 263 262 262 263 263 261 261 259
322 326 327 332 336 336 335 331 322 308 289 270 260 255 248 243 240 237 234 230 225 218 214 216 219 220 220 220 221 224 226 227 230 232 234 239 245 248 248 248 252 260 264 261 255 255 261 264 264 266 270 273 275 281 283 279 273 272 272 270 268 269 269 268 270 269 262 254 252 254 254 254 255 255 257 260 264 264 262 261 261 262 261 259 257